OBJECT C

Satellite information

Favourite Embed

Satellite Type and Status

UNKNOWNIN ORBIT

Key statistics

Satellite OBJECT C at a glance.

Uptime

696

Days in orbit

Revolutions

≈ 15.2

Per day

Orbit

SSO

Sun Synchronous Orbit

Inclination

97.5

Latest

Satellite identification and parameters

Extended collection of information and parameters for OBJECT C.

Object identification

Identified? True

Debris? False

Object name: OBJECT C

International designator: 2024-016C

Object number (NORAD): 58822

Object ID (CCSDS): 58822

Country: PEOPLES REPUBLIC OF CHINA (PRC)

Current information (Y/N): Y

RCS size: LARGE

Orbital parameters

Period: 94.623 minutes

Inclination: 97.4551 deg

SMA: 6878.45 km

Apoapsis: 508.781 km

Periapsis: 491.849 km

RAAN: 69.9986 deg

Eccentricy: 0.00123078

Argument of periapsis: 108.9954 deg

Mean anomaly: 251.2617 deg

Mean motion: 15.21832677 rev/day

Mean motion (dot): 0.00006782 rev/day2

B* drag term: 0.00030096313 1/REarth

Two-line elements (TLE)

Creation date: Dec. 19, 2025, 2:08 a.m.

Reference frame: TEME

Reference center: EARTH

Epoch: Dec. 18, 2025, 11:40 p.m. UTC

TLE line 0: 0 OBJECT C

TLE line 1: 1 58822U 24016C 25352.98679686 .00006782 00000-0 30096-3 0 9998

TLE line 2: 2 58822 97.4551 69.9986 0012308 108.9954 251.2617 15.21832677105692

Live tracking on map

Real-time ground track for satellite OBJECT C.

In-orbit conjunctions

There are no conjunctions computed for OBJECT C, at the moment. Check back to stay up to date, as we update our databases every day.

Go to all conjunctions

Associated space launch

Carries 5 Earth and spatial observation satellites manufactured by MINOSPACE; details TBD: * Taijing-1-03 * Taijing-2-02 * Taijing-2-04 * Taijing-3-02 * Taijing-4-03

OBJECT C was lifted into orbit during the mission ‘Kinetica 1 | Flight 3’, on board a Kinetica 1 space rocket.

The launch took place on Jan. 23, 2024, 4:03 a.m. from Launch Area 130.

For more information about the launch, click the button.

Launch to space Kinetica 1 | Flight 3
Kinetica 1 | Flight 3

Agency: N/A

Status: Launch Successful

Launch date: Jan. 23, 2024, 4:03 a.m. UTC

Rocket: Kinetica 1

Launch pad: Launch Area 130

Location: Jiuquan Satellite Launch Center, People's Republic of China

...

Latest news about this satellite

There are no fresh news available about this satellite. Check back as we update our databases every day.


Newsletter sign-up

Weekly statistics, charts and insights to help you stay on top of the space industry.